Regional Weather Roundup
Issued by NWS

Home | Current Version | Previous Version | Text Only | Print | Product List | Glossary On
Versions: 1 2 3 4 5 6 7 8 9 10 11 12 13 14 15 16 17 18 19 20 21 22 23 24 25 26 27 28 29 30 31 32 33 34 35 36 37 38 39 40 41 42 43 44 45 46 47 48 49 50
000
ASUS43 KDMX 250301
RWRIA

WEATHER ROUNDUP FOR IOWA
NATIONAL WEATHER SERVICE DES MOINES IA
900 PM CST SAT FEB 24 2018

NOTE: "FAIR" INDICATES FEW OR NO CLOUDS BELOW 12,000 FEET WITH NO
SIGNIFICANT WEATHER AND/OR OBSTRUCTIONS TO VISIBILITY.

* - THESE STATIONS ARE NOT NWS STATIONS...THUS NOT UNDER NWS
QUALITY CONTROL.  THEY ALSO DO NOT REPORT WEATHER SUCH
AS PRECIPITATION OR FOG.

IAZ001>003-012>014-020>022-031>034-043>046-250400-
   NORTHWEST IOWA

CITY           SKY/WX    TMP DP  RH WIND       PRES   REMARKS
CARROLL *      CLOUDY    27  25  93 W17G23    29.68R WCI  14
DENISON *      CLOUDY    27  25  93 SW12      29.70S WCI  16
LE MARS *      CLOUDY    25  21  86 W12G17    29.69R WCI  14
ORANGE CITY *  CLOUDY    23  21  93 W17       29.66R WCI   9
SHELDON *      FLURRIES  21  19  93 W17G23    29.63S WCI   7
SIOUX CITY     CLOUDY    26  23  88 W10       29.70R WCI  16
SPENCER        CLOUDY    22  18  85 W20       29.62F WCI   7
STORM LAKE *   CLOUDY    23  23 100 W16       29.64S WCI  10
$$

IAZ055>058-069>071-079>083-090>094-250400-
   SOUTHWEST IOWA

CITY           SKY/WX    TMP DP  RH WIND       PRES   REMARKS
ATLANTIC *     CLOUDY    28  28 100 SW10      29.72S WCI  19
AUDUBON *      CLOUDY    27  25  93 SW9       29.70S WCI  17
CLARINDA *     PTCLDY    28  28 100 SW8       29.80S WCI  20
COUNCIL BLFS * CLEAR     27  27 100 SW9       29.73S WCI  17
CRESTON *      CLOUDY    28  27  93 W21G28    29.74R WCI  15
LAMONI         CLOUDY    31  26  82 W23       29.75R WCI  18
RED OAK *      CLEAR     28  27  93 SW8       29.76R WCI  20
SHENANDOAH *   PTCLDY    28  28 100 SW10      29.78S WCI  19
$$

IAZ047>049-059>061-072>074-084-250400-
   CENTRAL IOWA

CITY           SKY/WX    TMP DP  RH WIND       PRES   REMARKS
AMES           MOCLDY    30  26  85 W22G28    29.66R WCI  17
ANKENY *       MOCLDY    30  28  93 W20G28    29.69R WCI  18
BOONE *        CLOUDY    28  27  93 W17G24    29.65R WCI  16
CHARITON *     MOCLDY    32  28  86 W15G23    29.70R WCI  22
DES MOINES     CLOUDY    31  27  85 W20       29.69R WCI  19
GRINNELL*      CLOUDY    32  32 100 W24       29.64R WCI  19
KNOXVILLE *    MOCLDY    32  28  86 W16G24    29.67R WCI  21
MARSHALLTOWN   CLOUDY    31  29  92 W24G32    29.62R WCI  17
NEWTON *       CLOUDY    32  30  93 W16G26    29.66R WCI  21
PELLA *        CLOUDY    32  32 100 W21G29    29.68R WCI  20
$$

IAZ004>006-015-016-023>025-035-036-250400-
   NORTH CENTRAL IOWA

CITY           SKY/WX    TMP DP  RH WIND       PRES   REMARKS
CLARION *      CLOUDY    27  27 100 W28       29.62R FOG     WCI  11
ESTHERVILLE    CLOUDY    20  17  88 W21       29.59S FOG     WCI   4
FORT DODGE *   CLOUDY    25  22  88 W15       29.64R WCI  13
MASON CITY     CLOUDY    26  24  92 W25G32    29.57S FOG     WCI  11
FOREST CITY *  MOCLDY    27  25  93 W10       29.58R WCI  17
WEBSTER CITY * CLOUDY    27  25  93 W20G29    29.62R WCI  13
IOWA FALLS *   CLOUDY    29  28  94 W25       29.62S WCI  15
$$

IAZ007>011-017>019-026>030-037>042-050>054-066-250400-
   NORTHEAST IOWA

CITY           SKY/WX    TMP DP  RH WIND       PRES   REMARKS
CEDAR RAPIDS   LGT SNOW  34  27  75 W12       29.58R WCI  25
CHARLES CITY * CLOUDY    32  32 100 W22G30    29.55R WCI  19
CLINTON *      RAIN      41  41 100 W23       29.54F FOG
DECORAH *      LGT SNOW  32  32 100 VRB5      29.52S WCI  27
DUBUQUE        MIX PCPN  36  35  96 SW10      29.52R FOG     WCI  28
MONTICELLO *   RAIN      36  36 100 W8        29.55S WCI  29
OELWEIN *      LGT SNOW  32  32 100 SW13      29.55F WCI  22
WATERLOO       CLOUDY    32  31  96 W17G25    29.57R WCI  21
$$

IAZ064-065-067-068-078-250400-
   EAST CENTRAL IOWA

CITY           SKY/WX    TMP DP  RH WIND       PRES   REMARKS
DAVENPORT      LGT RAIN  43  41  93 SW15      29.57R FOG
IOWA CITY      CLOUDY    38  36  92 W16       29.62R WCI  29
MUSCATINE *    CLOUDY    39  39 100 W14       29.61R FOG     WCI  31
QUAD CITIES    LGT RAIN  44  43  96 W13       29.55R FOG
$$

IAZ062-063-075>077-085>089-095>099-250400-
   SOUTHEAST IOWA

CITY           SKY/WX    TMP DP  RH WIND       PRES   REMARKS
BURLINGTON     LGT RAIN  40  40 100 W13       29.60R WCI  32
FAIRFIELD *    CLOUDY    36  34  93 W18G26    29.63R WCI  25
FORT MADISON * CLOUDY    39  39 100 W14       29.63R WCI  31
KEOKUK *       CLOUDY    41  39  93 W20G29    29.63R
OTTUMWA          N/A    N/A N/A N/A MISG      29.65R
WASHINGTON *   LGT RAIN  36  36 100 W18G28    29.63R WCI  25
$$

ABBREVIATIONS USED IN REMARKS
   TC - TEMPERATURES IN CELSIUS
  WCI - WIND CHILL INDEX
   HX - HEAT INDEX
  VSB - VISIBILITY
$$





USA.gov is the U.S. government's official web portal to all federal, state and local government web resources and services.